• In Romania
  • List of Countries
  • For 7 days
  • Water Temperature
  • Satellite Maps
  • Weather Map
  • Weather Widgets
  • user-avatar
    Login

    Hourly Weather Wien

    Today, 29 March, Wednesday

    Time Temperature Precipitation Wind Pressure Humidity
    00:00 +9°C° 0 mm 2 mps 748 mmHg 78%
    01:00 +9°C° 0 mm 3 mps 748 mmHg 81%
    02:00 +9°C° 0 mm 3 mps 748 mmHg 82%
    03:00 +9°C° 0 mm 3 mps 748 mmHg 84%
    04:00 +8°C° 0 mm 3 mps 748 mmHg 85%
    05:00 +9°C° 0 mm 3 mps 748 mmHg 83%
    06:00 +9°C° 0 mm 3 mps 748 mmHg 81%
    07:00 +10°C° 0 mm 3 mps 749 mmHg 79%
    08:00 +12°C° 0 mm 4 mps 749 mmHg 72%
    09:00 +14°C° 0 mm 5 mps 749 mmHg 66%
    10:00 +17°C° 0 mm 5 mps 749 mmHg 60%
    11:00 +17°C° 0 mm 6 mps 749 mmHg 56%
    12:00 +19°C° 0 mm 6 mps 748 mmHg 53%
    13:00 +20°C° 0 mm 6 mps 748 mmHg 49%
    14:00 +20°C° 0 mm 6 mps 748 mmHg 51%
    15:00 +19°C° 0 mm 6 mps 748 mmHg 52%
    16:00 +19°C° 0 mm 5 mps 748 mmHg 54%
    17:00 +16°C° 0 mm 5 mps 748 mmHg 61%
    18:00 +14°C° 0 mm 4 mps 748 mmHg 69%
    19:00 +13°C° 0 mm 4 mps 748 mmHg 76%
    20:00 +12°C° 0 mm 4 mps 749 mmHg 78%
    21:00 +11°C° 0 mm 4 mps 749 mmHg 81%
    22:00 +11°C° 0 mm 4 mps 749 mmHg 83%
    23:00 +11°C° 0 mm 4 mps 750 mmHg 84%

    Tomorrow, 30 March, Thursday

    Time Temperature Precipitation Wind Pressure Humidity
    00:00 +10°C° 0 mm 4 mps 750 mmHg 84%
    01:00 +10°C° 0 mm 4 mps 750 mmHg 85%
    02:00 +10°C° 0 mm 4 mps 750 mmHg 85%
    03:00 +10°C° 0 mm 3 mps 750 mmHg 85%
    04:00 +10°C° 0 mm 3 mps 750 mmHg 85%
    05:00 +10°C° 0 mm 3 mps 750 mmHg 84%
    06:00 +10°C° 0 mm 3 mps 750 mmHg 84%
    07:00 +10°C° 0 mm 3 mps 751 mmHg 84%
    08:00 +12°C° 0 mm 3 mps 751 mmHg 78%
    09:00 +13°C° 0 mm 3 mps 751 mmHg 72%
    10:00 +14°C° 0 mm 4 mps 751 mmHg 67%
    11:00 +16°C° 0.1 mm 3 mps 751 mmHg 63%
    12:00 +17°C° 0.1 mm 3 mps 751 mmHg 60%
    13:00 +18°C° 0.1 mm 3 mps 751 mmHg 57%
    14:00 +18°C° 0 mm 3 mps 750 mmHg 57%
    15:00 +18°C° 0 mm 2 mps 750 mmHg 58%
    16:00 +17°C° 0 mm 2 mps 750 mmHg 58%
    17:00 +16°C° 0 mm 2 mps 750 mmHg 65%
    18:00 +14°C° 0 mm 2 mps 750 mmHg 73%
    19:00 +12°C° 0 mm 1 mps 750 mmHg 80%
    20:00 +11°C° 0 mm 1 mps 750 mmHg 82%
    21:00 +11°C° 0 mm 1 mps 751 mmHg 84%
    22:00 +10°C° 0 mm 1 mps 751 mmHg 86%
    23:00 +10°C° 0 mm 1 mps 751 mmHg 87%

    Day after tomorrow, 31 March, Friday

    Time Temperature Precipitation Wind Pressure Humidity
    00:00 +9°C° 0 mm 2 mps 751 mmHg 88%
    01:00 +9°C° 0 mm 2 mps 751 mmHg 88%
    02:00 +8°C° 0 mm 2 mps 750 mmHg 89%
    03:00 +8°C° 0 mm 2 mps 750 mmHg 89%
    04:00 +8°C° 0 mm 2 mps 750 mmHg 90%
    05:00 +8°C° 0 mm 3 mps 750 mmHg 89%
    06:00 +8°C° 0 mm 3 mps 750 mmHg 87%
    07:00 +8°C° 0 mm 3 mps 750 mmHg 86%
    08:00 +10°C° 0 mm 4 mps 749 mmHg 80%
    09:00 +12°C° 0 mm 4 mps 749 mmHg 73%
    10:00 +14°C° 0 mm 5 mps 749 mmHg 67%
    11:00 +16°C° 0 mm 5 mps 748 mmHg 64%
    12:00 +17°C° 0 mm 6 mps 748 mmHg 60%
    13:00 +19°C° 0 mm 6 mps 747 mmHg 57%
    14:00 +19°C° 0 mm 6 mps 747 mmHg 58%
    15:00 +19°C° 0 mm 6 mps 746 mmHg 58%
    16:00 +19°C° 0 mm 6 mps 746 mmHg 59%
    17:00 +16°C° 0 mm 6 mps 746 mmHg 65%
    18:00 +15°C° 0 mm 5 mps 745 mmHg 71%
    19:00 +13°C° 0 mm 5 mps 745 mmHg 77%
    20:00 +12°C° 0 mm 5 mps 745 mmHg 78%
    21:00 +12°C° 0 mm 5 mps 745 mmHg 79%
    22:00 +10°C° 0 mm 5 mps 745 mmHg 80%
    23:00 +10°C° 0 mm 5 mps 745 mmHg 80%

    1 April, Saturday

    Time Temperature Precipitation Wind Pressure Humidity
    00:00 +10°C° 0 mm 4 mps 745 mmHg 80%
    01:00 +10°C° 0 mm 4 mps 744 mmHg 80%
    02:00 +8°C° 0 mm 4 mps 744 mmHg 82%
    03:00 +8°C° 0 mm 4 mps 744 mmHg 84%
    04:00 +7°C° 0 mm 4 mps 744 mmHg 86%
    05:00 +8°C° 0 mm 4 mps 744 mmHg 86%
    06:00 +8°C° 0 mm 4 mps 744 mmHg 86%
    07:00 +8°C° 0 mm 4 mps 744 mmHg 85%
    08:00 +10°C° 0 mm 5 mps 743 mmHg 79%
    09:00 +12°C° 0 mm 5 mps 743 mmHg 72%
    10:00 +14°C° 0 mm 5 mps 743 mmHg 66%
    11:00 +15°C° 0 mm 6 mps 743 mmHg 63%
    12:00 +16°C° 0 mm 6 mps 743 mmHg 59%
    13:00 +19°C° 0 mm 6 mps 742 mmHg 56%
    14:00 +19°C° 0 mm 6 mps 742 mmHg 57%
    15:00 +19°C° 0 mm 6 mps 741 mmHg 57%
    16:00 +19°C° 0 mm 6 mps 741 mmHg 58%
    17:00 +16°C° 0 mm 6 mps 741 mmHg 64%
    18:00 +15°C° 0 mm 5 mps 741 mmHg 69%
    19:00 +13°C° 0 mm 5 mps 741 mmHg 75%
    20:00 +12°C° 0 mm 5 mps 742 mmHg 76%
    21:00 +12°C° 0 mm 5 mps 742 mmHg 78%
    22:00 +10°C° 0 mm 5 mps 742 mmHg 79%
    23:00 +11°C° 0 mm 4 mps 742 mmHg 80%

    2 April, Sunday

    Time Temperature Precipitation Wind Pressure Humidity
    00:00 +10°C° 0 mm 4 mps 742 mmHg 81%
    01:00 +8°C° 0 mm 4 mps 742 mmHg 82%
    02:00 +8°C° 0 mm 4 mps 742 mmHg 83%
    03:00 +8°C° 0 mm 3 mps 742 mmHg 83%
    04:00 +8°C° 0 mm 3 mps 742 mmHg 84%
    05:00 +8°C° 0 mm 3 mps 743 mmHg 81%
    06:00 +9°C° 0 mm 3 mps 743 mmHg 79%
    07:00 +9°C° 0 mm 2 mps 744 mmHg 77%
    08:00 +11°C° 0 mm 3 mps 744 mmHg 71%
    09:00 +13°C° 0 mm 3 mps 744 mmHg 65%
    10:00 +16°C° 0 mm 3 mps 745 mmHg 59%
    11:00 +17°C° 0 mm 3 mps 745 mmHg 56%
    12:00 +18°C° 0 mm 3 mps 745 mmHg 53%
    13:00 +19°C° 0 mm 3 mps 744 mmHg 50%
    14:00 +19°C° 0 mm 3 mps 744 mmHg 50%
    15:00 +19°C° 0 mm 3 mps 744 mmHg 50%
    16:00 +20°C° 0 mm 3 mps 744 mmHg 50%
    17:00 +17°C° 0 mm 2 mps 744 mmHg 59%
    18:00 +15°C° 0 mm 2 mps 744 mmHg 68%
    19:00 +13°C° 0 mm 2 mps 744 mmHg 77%
    20:00 +12°C° 0 mm 2 mps 745 mmHg 79%
    21:00 +12°C° 0 mm 2 mps 745 mmHg 81%
    22:00 +11°C° 0 mm 1 mps 745 mmHg 83%
    23:00 +10°C° 0 mm 1 mps 745 mmHg 84%

    3 April, Monday

    Time Temperature Precipitation Wind Pressure Humidity
    00:00 +10°C° 0 mm 1 mps 745 mmHg 86%
    01:00 +10°C° 0 mm 1 mps 745 mmHg 87%
    02:00 +9°C° 0 mm 1 mps 745 mmHg 88%
    03:00 +9°C° 0 mm 1 mps 745 mmHg 90%
    04:00 +9°C° 0 mm 1 mps 745 mmHg 91%
    05:00 +10°C° 0 mm 1 mps 745 mmHg 88%
    06:00 +11°C° 0 mm 1 mps 746 mmHg 86%
    07:00 +11°C° 0 mm 1 mps 746 mmHg 84%
    08:00 +13°C° 0 mm 2 mps 746 mmHg 78%
    09:00 +15°C° 0 mm 2 mps 746 mmHg 72%
    10:00 +16°C° 0 mm 2 mps 746 mmHg 66%
    11:00 +17°C° 0.3 mm 2 mps 746 mmHg 64%
    12:00 +18°C° 0.3 mm 2 mps 746 mmHg 61%
    13:00 +18°C° 0.3 mm 2 mps 745 mmHg 59%
    14:00 +18°C° 0.5 mm 2 mps 745 mmHg 60%
    15:00 +18°C° 0.5 mm 2 mps 745 mmHg 61%
    16:00 +18°C° 0.5 mm 2 mps 745 mmHg 62%
    17:00 +16°C° 0.4 mm 2 mps 745 mmHg 70%
    18:00 +14°C° 0.4 mm 2 mps 745 mmHg 78%
    19:00 +12°C° 0.4 mm 2 mps 745 mmHg 86%
    20:00 +12°C° 0.2 mm 2 mps 745 mmHg 88%
    21:00 +10°C° 0.2 mm 2 mps 745 mmHg 91%
    22:00 +10°C° 0.2 mm 2 mps 746 mmHg 93%
    23:00 +10°C° 0 mm 2 mps 745 mmHg 93%
    Show more